Погода Александров Гай

Хотите узнать прогноз погоды Александров Гай? Тогда Вам сюда: Погода Александров Гай

Поиск расширенной информации на нашем сайте:

Полезная информация:

Новости сайта



02.01.2020
Опубликован Долгосрочный прогноз погоды по городам России и ближнего зарубежья на январь 2020 года.
Карты: Прогноз на январь и февраль 2020 года, Сравнение прогнозируемой аномалии приземной температуры воздуха на январь 2020 года по разным моделям.




Погода Александров Гай - сегодня

Время (UTC), дата Ветер
(°,м/с) 
Видим.   Явления Облачность Т
(°С)
Тd
(°С)
f(%) Тe
(°С)
Pmin
(гПа)
dP
(гПа)
Po
(мм)
O2
(г/м3)
Тmin Tmax R s Состояние
почвы
18 24.02.21 310 (СЗ) 10 км    3/0 средняя 
[Ac As]
-21.1 -24.9 71 -27  1037  0.6  775  340           
21 24.02.21 300 (СЗ) 10 км    3/0 средняя, верхняя 
[Ac trans|Ci fib]
-22.6 -25.9 74 -26  1037.1  0.1  775  342           
00 25.02.21 300 (СЗ) 10 км    3/0 верхняя 
[Ci sp]
-24 -26.9 77 -29  1037  0.1  775  344           
03 25.02.21 260 (З) 10 км    3/0 верхняя 
[Ci sp]
-24.9 -27.6 78 -28  1037.1  0.1  775  346  -25.2      равномерный
сухой снег
100% 
06 25.02.21 250 (З) 10 км    3/0 средняя, верхняя 
[Ac lent|Ci sp]
-20.8 -24.4 73 -24  1036.8  -0.4  775  340           
09 25.02.21 220 (ЮЗ) 10 км    10/0 средняя 
[Ac As]
-16.1 -20.5 69 -22  1034.6  -2.2  773  333           
12 25.02.21 210 (ЮЗ) 7-10{10}  10 км    10/0 средняя 
[As op]
-12.3 -17.3 66 -19  1031.2  -3.3  771  327           
15 25.02.21 200 (Ю) 7-10{12}  4000 м  слаб. снег  10/10 540 м 
[Frnb]
-12.5 -13.8 90 -19  1026.7  -4.5  768  325    -12.3     
18 25.02.21 220 (ЮЗ) 9-12{14}  4000 м  слаб. снег  10/10 540 м 
[Frnb]
-11.8 -13.1 90 -19  1023.5  -3.2  765  324           
21 25.02.21 220 (ЮЗ) 7-11{14}  4000 м  слаб. снег  10/10 500 м 
[Frnb]
-11.9 -13.1 91 -18  1019.9  -3.6  763  322           
00 26.02.21 230 (ЮЗ) 5{11}  4000 м  слаб. снег  10/10 500 м 
[Frnb]
-10.9 -11.9 92 -16  1017.4  -2.5  761  320           
03 26.02.21 230 (ЮЗ) 4000 м  слаб. переохл. морось (гололёд){снег} [диам. гололёда 1 мм]  10/10 400 м 
[St]
-9.5 -10 96 -12  1016  -1.4  760  318  -12.6    равномерный
сухой снег
100% 
06 26.02.21 250 (З) 10 км    10/10 750 м 
[Sc]
-6.9 -8.3 90 -10  1015.3  -0.6  759  315           
09 26.02.21 310 (СЗ) 10 км    10/0 средняя 
[As op]
-3.3 -4.4 92 -3  1015.9  0.7  760  310           
12 26.02.21 200 (Ю) 10 км    10/0 средняя 
[As op]
-1.8 -3.1 91 -1  1015.4  -0.5  759  308           
15 26.02.21 180 (Ю) 4000 м  слаб. снег  10/10 570 м 
[Frnb]
-1.6 -2.7 92 -4  1014.1  -1.3  758  308    -1.4  0.0     
18 26.02.21 200 (Ю) 4000 м  слаб. дождь{морось}  10/10 400 м 
[St]
-0.2 -1.1 94 -4  1010.7  -3.3  756  305           
21 26.02.21 240 (ЮЗ) 8-11{13}  2000 м  дымка{дождь}  10/10 400 м 
[St]
+0.6 -0.3 94 -4  1007.7  -3  754  303           
00 27.02.21 260 (З) 7-11{13}  2000 м  дымка{дождь}  10/10 400 м 
[St]
+1.6 +0.7 94 -2  1005.3  -2.3  752  301           
03 27.02.21 270 (З) 7{11}  0500 м  туман  ?/?  
+1.4 +0.6 94 -2  1004.4  -0.9  751  301  -1.9    мокрый или
старый снег
50-90% 
06 27.02.21 260 (З) 5{10}  0500 м  туман  ?/?  
+1.2 +0.4 94 -2  1004.7  0.3  751  301           
09 27.02.21 270 (З) 6-10{10}  0500 м  туман  ?/?  
[]
+1.2 +0.5 95 -2  1004.7  -0.1  751  301           
12 27.02.21 270 (З) 5{10}  4000 м  дымка{туман}  10/10 400 м 
[St]
+1.3 +0.5 94 -1  1004  -0.6  751  301           
15 27.02.21 270 (З) 4000 м  дымка  10/10 400 м 
[St]
+1 +0.3 95 -2  1003.9  -0.2  751  301    +1.4       
18 27.02.21 260 (З) 10 км    8/0 средняя, верхняя 
[Ac As|Ci sp]
+0.7 -0.2 94 -2  1003.5  -0.4  750  302           
Время (UTC), дата Ветер
(°,м/с) 
Видим.   Явления Облачность Т
(°С)
Тd
(°С)
f(%) Тe
(°С)
Pmin
(гПа)
dP
(гПа)
Po
(мм)
O2
(г/м3)
Тmin Tmax R s Состояние
почвы

Для получения пояснительной информации подведите курсор к названию столбца.

ПОГОДА Александров Гай - архив

Всё, что Вы хотите узнать о погоде Александров Гай - удобно и подробно!

Выберите нужную дату (начиная с 1 января 2019* года) и нажмите кнопку "Найти".
Будут отображены архивные сводки погоды по пункту Александров Гай, начиная с указанной даты.


Отображать данные в формате CSV (для использования в таблицах Excel)


Внимание! Наш архив погоды предназначен исключительно для личного некоммерческого использования в познавательных целях. Если Вам необходимы официальные справки о состоянии погоды (для производственных, юридических, коммерческих и т.п. целей), обращайтесь в органы Росгидромета.

*Примечание: данная дата относится к архиву по метеостанциям СССР (Россия, СНГ, Балтия).
Архив по метеостанциям Зарубежной Европы и Азии (кроме Китая) хранится 10 дней, по другим регионам земного шара (Китай, Африка, Америка, Австралия, Океания) - 1 день.

Александров Гай - район местоположения метеостанции


Название, широта, долгота, высота метеостанции:
Александров Гай 50.2°ш. 48.6°д. 25 м над ур. моря [Российская Федерация]

Дополнительная информация

В oтличие oт бoльшинства пoгoдных сайтoв мы публикуем пoдрoбную метеoинфoрмацию в детальнoм прoфессиoнальнoм фoрмате.

Характеристики температуры и влажнoсти вoздуха измеряются на высoте 2 м в тени вдали oт зданий и деревьев.
Скoрoсть ветра измеряется на высoте 10 м (на урoвне рoста челoвека скoрoсть ветра ниже в 1.5-2 раза). Если метеoстанция нахoдится в гoрoде или в лесу, тo скoрoсть ветра занижена на 2-4 м/с пo сравнению с oткрытым местoм. Скoрoсть ветра над акватoриями крупных рек и oзёр, а также на вершинах хoлмoв на 2-5 м/с выше, чем в oбычных услoвиях.
Атмoсфернoе давление в разных тoчках местнoсти мoжет значительнo oтличаться oт давления на метеoстанции, в зависимoсти oт услoвий рельефа (при пoдъёме на 10 м давление пoнижается примернo на 1 мм рт.ст.).